User: anonymous   Login
Location: Caltech
(34.1382°N, 118.1253°W)
Time: 04:42:37
(UTC-08:00)
Language:

Cosmos 1833 Rocket - Orbit

View from above orbital plane
View from above orbital plane
View from above satellite
View from above satellite

Ground track
Ground track

The orbit data is extracted from the following two-line orbital elements,

1 17590U 87027B   16344.76656883  .00000058  00000-0  52744-4 0  9992
2 17590  71.0012 188.8440 0007022 243.3827 116.6577 14.16733613537292
Epoch (UTC): 09 December 2016 18:23:51
Eccentricity: 0.0007022
inclination: 71.0012°
perigee height: 831 km
apogee height: 841 km
right ascension of ascending node: 188.8440°
argument of perigee: 243.3827°
revolutions per day: 14.16733613
mean anomaly at epoch: 116.6577°
orbit number at epoch: 53729

The dashed part of the orbit path shows where the satellite is in the earth's shadow,  

DLR